Content
SEND FEEDBACK

Daily
Averages
Monthly
Summary
United States of America

MADERA, CALIFORNIA


Home > North America > United States > California
Elevation: 253 feet     Latitude: 36 59N     Longitude: 120 06W

WEATHER
 
SELECT A DAY
Number of Records: 150,871;   Date Range: 9/2/98 - 7/26/14
 
SHARE

PRINT THIS DATA

[ ← Previous Day ]
WEATHER ALMANAC - JANUARY 10, 2013
[ Next Day → ]
[ °C ]   °F
Weather ElementAverageHighLow
Temperature41.3 °F50 °F (2:53 pm)32 °F (5:53 am)
Dewpoint31.8 °F34 °F (1:53 am)28 °F (9:53 pm)
Humidity70.2 %89 % (6:53 am)52 % (2:53 pm)
Barometer30.08 in30.16 in (11:53 pm)30.04 in (12:53 pm)
Wind Speed11.2 mph17.3 mph (12:53 pm)
Wind Gust23 mph (1:53 pm)
Weather ElementAverage
Visibility10 mi
Wind DirectionSSW (211.3 °)

Weather ElementTotal
Precipitation---
Heating Degree Days24 (Base 65)
Averaged from 23 records on January 10, 2013
WEATHER CONDITIONS BREAKOUT
WIND DIRECTION BREAKOUT
WEATHER BY HOUR - JANUARY 10, 2013
[ °C ]   °F
Local TimeTemperatureDewpointHumidityBarometerVisibilityWind DirectionWind SpeedGust SpeedPrecipitationEventsConditions
1:53 AM44.1 °F34.0 °F68 %30.06 in10.0 miNorthOvercast
2:53 AM39.9 °F33.1 °F77 %30.06 in10.0 miNorthClear
3:53 AM37.9 °F32.0 °F79 %30.06 in10.0 miNorthClear
4:53 AM36.0 °F30.9 °F82 %30.06 in10.0 miNorthClear
5:53 AM32.0 °F28.9 °F88 %30.07 in10.0 miNorthClear
6:53 AM35.1 °F32.0 °F89 %30.08 in10.0 miNorthClear
7:53 AM34.0 °F30.9 °F89 %30.09 in10.0 miNorthClear
8:53 AM39.9 °F34.0 °F79 %30.11 in10.0 miWNW (300°)6.9 mphClear
9:53 AM43.0 °F34.0 °F71 %30.10 in10.0 miNNW (340°)8.1 mphClear
10:53 AM46.0 °F34.0 °F63 %30.09 in10.0 miNNW (340°)13.8 mphScattered Clouds
11:53 AM46.9 °F33.1 °F59 %30.06 in10.0 miNW (320°)15.0 mphPartly Cloudy
12:53 PM48.9 °F33.1 °F54 %30.04 in10.0 miWNW (300°)17.3 mphClear
1:53 PM48.9 °F33.1 °F54 %30.04 in10.0 miWNW (300°)15.0 mph23.0 mphClear
2:53 PM50.0 °F33.1 °F52 %30.04 in10.0 miWNW (300°)17.3 mph23.0 mphClear
3:53 PM48.9 °F32.0 °F52 %30.05 in10.0 miNW (320°)13.8 mph21.9 mphPartly Cloudy
4:53 PM46.9 °F30.0 °F52 %30.06 in10.0 miNW (310°)13.8 mph20.7 mphClear
5:53 PM43.0 °F32.0 °F65 %30.07 in10.0 miWNW (290°)5.8 mphClear
6:53 PM42.1 °F32.0 °F67 %30.09 in10.0 miWNW (300°)9.2 mphClear
7:53 PM41.0 °F30.9 °F67 %30.11 in10.0 miWNW (290°)10.4 mphClear
8:53 PM37.9 °F30.0 °F73 %30.14 in10.0 miWNW (300°)8.1 mphClear
9:53 PM34.0 °F28.0 °F79 %30.15 in10.0 miWest (270°)8.1 mphClear
10:53 PM36.0 °F30.0 °F79 %30.15 in10.0 miWest (280°)8.1 mphClear
11:53 PM37.0 °F30.0 °F76 %30.16 in10.0 miWNW (300°)9.2 mphClear
Hourly data recorded from KMAE, located miles away from Madera, California







STORIES FROM OUR PARTNERS